EDT,Max TemperatureF,Mean TemperatureF,Min TemperatureF,Max Dew PointF,MeanDew PointF,Min DewpointF,Max Humidity, Mean Humidity, Min Humidity, Max Sea Level PressureIn, Mean Sea Level PressureIn, Min Sea Level PressureIn, Max VisibilityMiles, Mean VisibilityMiles, Min VisibilityMiles, Max Wind SpeedMPH, Mean Wind SpeedMPH, Max Gust SpeedMPH,PrecipitationIn, CloudCover, Events, WindDirDegrees
2013-7-1,88,81,75,75,73,71,94,80,65,30.02,29.91,29.83,10,9,2,15,9,23,0.05,6,Rain-Thunderstorm,202
2013-7-2,82,77,73,75,73,70,94,86,77,30.15,30.07,30.01,10,9,2,14,5,25,0.32,7,Rain-Thunderstorm,188
2013-7-3,87,78,73,77,74,71,94,87,69,30.20,30.16,30.13,10,7,0,17,3,33,0.84,5,Fog-Rain-Thunderstorm,161
2013-7-4,88,82,75,76,74,72,91,81,65,30.22,30.19,30.16,10,8,1,22,7,31,0.27,5,Rain,163
2013-7-5,89,83,77,78,75,74,94,82,65,30.22,30.19,30.16,10,8,0,23,6,31,0.33,4,Fog-Rain,153
2013-7-6,88,80,73,75,74,72,94,81,65,30.21,30.17,30.14,10,8,1,13,6,21,0.33,4,Rain,160
2013-7-7,89,82,77,75,73,71,90,75,57,30.19,30.16,30.12,10,10,4,8,3,,0.00,2,,183
2013-7-8,89,81,73,74,72,71,93,77,59,30.20,30.17,30.14,10,10,7,7,3,,0.00,4,,189
2013-7-9,91,81,73,74,72,70,91,74,57,30.21,30.16,30.11,10,10,10,8,3,,0.00,4,,192
2013-7-10,90,81,73,74,72,69,91,71,52,30.13,30.07,29.99,10,10,7,8,4,,0.00,4,,191
2013-7-11,89,82,75,76,73,70,88,75,57,30.02,29.96,29.89,10,10,9,21,7,29,0.00,5,Rain-Thunderstorm,207
2013-7-12,82,78,75,74,73,71,94,87,77,29.97,29.93,29.89,10,9,2,9,3,,0.11,6,Rain-Thunderstorm,163
2013-7-13,86,80,75,75,73,71,94,84,63,30.06,30.00,29.93,10,9,2,13,6,17,0.24,5,Rain,88
2013-7-14,86,80,75,76,73,72,94,88,69,30.20,30.12,30.05,10,6,1,20,8,32,1.07,6,Rain,139
2013-7-15,88,80,75,75,74,72,94,81,65,30.24,30.21,30.18,10,9,4,17,7,23,0.09,5,Rain-Thunderstorm,86
2013-7-16,89,82,75,75,73,70,94,80,55,30.28,30.24,30.22,10,9,5,12,6,,0.01,4,Rain,87
2013-7-17,93,83,73,76,72,69,94,74,47,30.24,30.18,30.11,10,10,6,16,4,31,0.00,4,Thunderstorm,336
2013-7-18,91,81,72,74,71,70,93,79,55,30.17,30.14,30.09,10,9,4,7,4,,0.00,5,,236
2013-7-19,90,81,73,75,73,70,90,77,61,30.13,30.09,30.03,10,10,2,15,4,21,0.05,5,Rain-Thunderstorm,195
2013-7-20,90,82,75,73,71,68,84,74,57,30.10,30.05,30.01,10,10,7,18,7,23,0.01,4,Rain-Thunderstorm,216
2013-7-21,88,80,73,77,73,70,91,81,65,30.07,30.02,29.97,10,8,1,17,8,26,0.29,5,Rain-Thunderstorm,249
2013-7-22,90,81,73,73,72,70,91,79,53,30.05,30.01,29.95,10,10,1,18,9,29,0.17,5,Rain-Thunderstorm,265
2013-7-23,91,82,75,73,72,71,90,75,54,29.97,29.91,29.83,10,10,6,16,12,23,0.00,5,,259
2013-7-24,84,78,73,74,71,70,91,78,66,29.85,29.83,29.80,10,10,8,12,7,,0.00,5,Thunderstorm,273
2013-7-25,93,82,72,74,71,68,93,74,50,29.99,29.88,29.80,10,9,5,10,5,,0.00,4,Rain-Thunderstorm,332
2013-7-26,88,80,73,75,73,70,91,76,61,30.06,30.02,29.97,10,9,5,10,5,,0.00,3,,105
2013-7-27,90,83,77,76,74,71,90,75,59,30.04,29.97,29.92,10,10,9,8,4,,0.00,2,Thunderstorm,167
2013-7-28,90,82,77,76,73,68,90,76,51,30.03,29.98,29.93,10,9,7,6,2,,0.00,1,,216
2013-7-29,93,83,73,76,74,71,94,80,49,30.17,30.09,30.02,10,8,2,10,4,,0.35,5,Rain-Thunderstorm,220
2013-7-30,93,82,73,76,73,71,94,79,50,30.18,30.14,30.11,10,8,1,9,3,,0.00,3,Fog,267
2013-7-31,91,82,73,76,74,72,94,87,59,30.14,30.08,30.03,10,5,0,12,3,24,1.50,5,Fog-Rain-Thunderstorm,215